Torna al catalogo

METEOR 2-8 DEB

AttivoPO
NORAD 36336·DEBRIS·🇷🇺 Russia

Lanciato Mar 25, 1982 da Plesetsk Cosmodrome

Loading…

Prossimi Passaggi (prossime 24 ore)

TLE

AggiornatoSource: Space-Track

Epoca: Sep 13, 2026, 02:22 UTC

1 36336U 82025W   26256.09866692  .00001388  00000-0  64104-3 0  9993
2 36336  82.5344 178.6614 0002907 321.5442  38.5531 14.20386005278440

Traccia METEOR 2-8 DEB in tempo reale con AllMySat

Download on the App Store